Retour au catalogue

TITAN 3C TRANSTAGE DEB

ActifGEO
NORAD 33510·DEBRIS·🇺🇸 United States

Lancé Sep 26, 1968 depuis Cape Canaveral Space Force Station

Loading…

TLE

FraisSource: Space-Track

Époque: Sep 14, 2026, 14:19 UTC

1 33510U 68081L   26257.59668110 -.00000221  00000-0  00000-0 0  9999
2 33510   2.2304  55.5620 0060446 301.4835 320.5302  1.01833878  8015

Suivez TITAN 3C TRANSTAGE DEB en temps réel avec AllMySat

Download on the App Store